Date,TemperatureHighF,TemperatureAvgF,TemperatureLowF,DewpointHighF,DewpointAvgF,DewpointLowF,HumidityHigh,HumidityAvg,HumidityLow,PressureMaxIn,PressureMinIn,WindSpeedMaxMPH,WindSpeedAvgMPH,GustSpeedMaxMPH,PrecipitationSumIn
2013-1-1,34.3,29.2,17.3,25.9,18.3,5.8,76,64,54,29.92,29.70,25,4,25,0.00
2013-1-2,27.7,17.9,10.6,16.3,8.0,-0.2,74,65,56,30.09,29.88,24,2,24,0.00
2013-1-3,23.2,12.9,2.1,9.9,-0.7,-7.7,69,55,32,30.12,29.96,16,1,16,0.00
2013-1-4,37.2,27.9,17.8,24.5,19.4,9.1,80,70,59,29.97,29.80,17,1,17,0.03
2013-1-5,40.0,31.6,24.6,25.1,20.5,15.5,73,64,49,30.25,29.83,19,2,19,0.04
2013-1-6,41.5,31.7,24.4,29.9,24.9,17.0,91,76,61,30.21,29.92,18,1,18,0.03
2013-1-7,38.4,31.3,25.2,29.3,23.3,14.9,88,73,52,30.39,29.95,14,1,14,0.00
2013-1-8,45.2,34.5,22.2,30.7,25.8,16.1,82,71,55,30.36,30.25,15,2,15,0.00
2013-1-9,42.7,35.5,25.8,35.1,28.6,21.7,90,76,59,30.38,29.99,13,2,13,0.00
2013-1-10,44.1,38.6,30.0,29.2,25.1,22.1,73,58,47,30.54,30.05,33,4,33,0.00
2013-1-11,37.7,32.3,26.4,35.5,26.9,20.9,100,80,68,30.53,30.20,7,0,7,0.12
2013-1-12,40.7,37.6,34.5,40.7,37.6,34.5,100,100,100,30.22,30.12,4,0,4,0.04
2013-1-13,45.6,41.1,39.2,45.6,41.1,39.2,100,100,100,30.15,30.08,5,0,5,0.01
2013-1-18,23.9,19.5,16.0,6.8,1.7,-2.5,58,46,33,30.43,30.30,20,2,20,0.20
2013-1-19,45.2,34.9,19.1,31.8,23.0,5.9,76,62,48,30.36,29.86,19,4,20,0.07
2013-1-20,51.0,38.8,26.2,33.7,26.0,9.0,77,61,38,29.92,29.54,24,4,24,0.00
2013-1-21,27.6,22.4,18.1,19.2,10.8,4.8,94,62,45,30.08,29.77,19,2,19,0.00
2013-1-22,22.5,17.4,10.4,19.0,7.6,-2.2,96,68,40,30.06,29.73,20,2,20,0.00
2013-1-23,14.1,8.6,4.3,-0.7,-6.7,-10.3,67,50,34,30.12,30.03,23,2,23,0.00
2013-1-24,17.5,8.7,0.3,-5.4,-9.0,-12.4,56,44,32,30.20,30.04,26,2,26,0.00
2013-1-25,21.8,14.0,5.4,9.2,-5.1,-11.6,76,43,29,30.29,30.03,19,1,19,0.00
2013-1-26,23.0,14.5,6.0,10.4,2.5,-5.8,86,61,35,30.22,29.98,19,1,20,0.00
2013-1-27,28.0,18.5,10.9,5.7,2.0,-1.0,66,49,33,30.45,30.21,16,2,20,0.00
2013-1-28,28.8,22.5,16.8,25.0,13.0,2.1,98,69,42,30.44,29.99,0,0,0,0.00
2013-1-29,31.7,28.0,23.3,31.7,27.4,22.6,100,98,95,30.18,29.99,0,0,0,0.11
2013-1-30,58.6,46.6,31.7,58.0,46.5,31.5,100,100,97,30.13,29.43,23,3,23,0.18
2013-1-31,59.0,45.7,28.3,59.0,38.0,16.2,100,76,46,29.58,28.96,42,6,42,0.52
2013-2-1,31.7,26.0,19.4,16.4,9.4,4.0,64,49,37,30.07,29.57,21,4,21,0.00
2013-2-2,28.5,21.9,13.8,11.9,7.2,2.3,62,53,42,30.23,30.02,16,2,16,0.00
2013-2-3,25.9,22.3,17.1,21.5,18.7,11.9,95,86,61,30.04,29.71,8,1,10,0.00
2013-2-4,27.1,21.5,15.5,20.7,11.5,6.5,95,66,45,29.94,29.70,31,3,31,0.00
2013-2-5,27.3,22.3,15.9,20.6,13.3,7.9,90,68,55,30.01,29.91,7,1,7,0.00
2013-2-6,37.7,27.9,21.8,28.5,18.9,5.0,96,71,43,30.28,29.89,20,2,20,0.02
2013-2-7,31.0,22.5,13.6,11.7,5.5,2.9,68,49,33,30.51,30.28,12,1,12,0.00
2013-2-8,29.8,22.9,16.2,28.8,19.2,9.5,98,86,61,30.48,29.58,28,2,28,0.00
2013-2-9,22.4,17.8,13.1,18.0,12.2,1.5,97,80,60,30.18,29.56,32,6,32,0.00
2013-2-10,38.0,22.6,8.1,10.6,3.5,-3.1,64,45,28,30.38,30.18,13,1,13,0.06
2013-2-11,41.4,30.3,21.9,41.4,24.1,3.6,100,80,40,30.33,29.59,9,1,9,0.18
2013-2-12,41.0,36.6,30.7,39.2,29.2,23.7,100,75,60,29.88,29.59,23,3,23,0.02
2013-2-13,39.7,32.5,26.2,27.2,23.3,20.2,79,69,56,29.86,29.67,11,1,11,0.00
2013-2-14,42.7,33.7,25.6,24.3,22.2,18.8,76,63,45,29.98,29.70,12,2,12,0.00
2013-2-15,49.7,37.4,27.0,35.4,30.2,21.6,98,76,57,29.98,29.88,15,2,15,0.00
2013-2-16,36.0,32.4,27.3,32.4,27.2,16.9,98,82,60,29.95,29.70,18,2,18,0.03
2013-2-17,27.3,19.6,15.0,19.0,9.3,-0.3,92,66,44,29.70,29.38,32,6,32,0.00
2013-2-18,30.2,20.3,11.9,5.1,1.6,-1.0,57,45,30,30.15,29.67,30,3,30,0.00
2013-2-19,45.6,33.9,20.4,41.5,23.4,2.5,100,67,44,30.16,29.57,14,1,14,0.26
2013-2-20,38.8,29.7,23.7,38.7,20.1,10.4,100,68,48,29.77,29.53,25,4,25,0.00
2013-2-21,30.8,25.3,21.6,14.9,13.1,10.2,71,60,48,30.19,29.75,29,4,29,0.01
2013-2-22,39.2,29.3,19.2,23.0,19.7,14.1,84,68,48,30.37,30.18,13,2,13,0.00
2013-2-23,36.1,31.7,26.2,31.1,26.9,20.2,99,83,74,30.32,29.89,9,1,9,0.00
2013-2-24,32.6,31.4,29.3,32.6,31.3,29.3,100,100,98,29.90,29.68,12,1,12,0.30
2013-2-25,37.3,32.0,26.5,35.2,31.1,26.5,100,97,84,30.23,29.88,7,0,7,0.47
2013-2-26,41.7,34.2,28.2,37.8,29.8,26.6,100,85,66,30.33,30.14,9,1,9,0.20
2013-2-27,39.7,36.8,33.3,39.7,36.2,30.1,100,98,82,30.15,29.56,18,3,18,1.29
2013-2-28,46.8,36.3,30.5,44.0,34.8,30.5,100,95,76,29.63,29.52,7,0,9,0.01
2013-3-1,41.0,35.7,30.0,35.7,30.1,26.3,100,81,65,29.67,29.52,16,2,16,0.00
2013-3-2,40.8,34.9,30.0,29.3,26.7,24.6,81,72,62,29.67,29.61,13,2,13,0.00
2013-3-3,41.0,33.4,29.8,31.2,27.4,23.7,96,79,64,29.64,29.55,14,2,14,0.00
2013-3-4,38.1,31.9,26.2,26.2,23.3,19.4,82,71,57,29.74,29.57,24,5,24,0.00
2013-3-5,45.0,34.6,28.0,30.7,26.3,21.4,92,72,56,30.06,29.74,13,2,13,0.00
2013-3-6,37.3,34.2,31.7,35.4,32.1,29.1,100,92,75,30.09,30.03,21,4,21,0.17
2013-3-7,32.5,30.1,28.3,30.7,28.8,26.7,99,95,90,30.06,29.97,21,5,25,0.09
2013-3-8,33.2,30.0,27.8,33.2,29.9,27.5,100,100,97,30.15,29.92,18,3,18,0.05
2013-3-9,47.5,34.3,26.4,32.6,26.2,21.1,100,74,43,30.35,30.14,15,2,15,0.31
2013-3-10,42.3,33.2,24.1,33.8,29.6,23.6,100,87,68,30.41,30.28,8,1,8,0.01
2013-3-11,52.7,40.4,33.0,41.0,35.9,30.6,100,85,61,30.32,30.14,11,2,11,0.00
2013-3-12,53.5,47.8,40.3,52.2,47.6,40.3,100,99,92,30.15,29.72,23,3,23,0.39
2013-3-13,49.6,41.1,32.6,49.3,31.8,21.4,100,72,42,29.78,29.70,17,3,17,0.00
2013-3-14,34.4,28.8,20.4,24.3,15.8,6.8,74,58,45,29.83,29.71,21,4,23,0.00
2013-3-15,40.0,28.3,17.6,26.9,15.1,6.5,81,58,36,29.87,29.62,19,3,19,0.00
2013-3-16,38.4,31.5,25.3,26.8,17.8,11.0,82,58,36,29.87,29.66,17,2,17,0.00
2013-3-17,36.6,28.4,21.5,17.1,11.9,5.1,75,52,31,30.30,29.86,23,2,23,0.00
2013-3-18,37.4,26.3,13.8,25.3,8.7,0.9,92,49,30,30.45,30.22,11,2,11,0.00
2013-3-19,33.4,30.2,26.2,33.4,29.9,24.8,100,99,92,30.22,29.61,16,3,16,0.30
2013-3-20,36.1,29.0,22.5,26.4,21.8,18.4,100,76,53,29.80,29.69,22,2,22,0.42
2013-3-21,34.7,27.9,22.2,27.1,21.1,16.7,95,76,56,29.81,29.59,10,1,10,0.11
2013-3-22,38.9,30.9,24.9,24.9,19.7,16.1,95,63,46,29.74,29.59,20,3,20,0.08
2013-3-23,41.0,33.1,26.1,23.1,20.5,18.2,78,60,44,29.79,29.63,26,4,26,0.02
2013-3-24,46.6,36.4,29.5,27.5,23.3,19.2,73,60,45,29.81,29.72,17,2,17,0.00
2013-3-25,41.7,34.4,27.4,32.6,28.1,22.8,85,78,68,29.76,29.51,13,2,13,0.00
2013-3-26,48.6,38.4,32.3,30.8,26.2,20.9,81,63,40,29.78,29.53,15,2,15,0.00
2013-3-27,52.9,40.8,30.1,30.4,25.0,19.8,70,54,38,29.88,29.74,19,2,20,0.00
2013-3-28,47.9,40.4,33.8,36.5,32.8,30.2,98,76,52,30.02,29.86,14,2,14,0.00
2013-3-29,56.2,44.1,34.5,36.5,32.1,29.6,86,64,39,30.05,29.96,17,2,17,0.00
2013-3-30,56.2,44.6,34.1,32.6,25.5,18.4,81,51,27,30.10,29.99,18,2,18,0.00
2013-3-31,58.1,44.9,31.3,39.7,27.5,19.2,90,53,30,30.11,29.72,16,2,16,0.05
2013-4-1,60.0,44.4,32.3,46.2,36.8,12.6,100,77,39,29.79,29.51,26,3,26,0.15
2013-4-2,37.9,31.8,25.6,20.2,15.2,11.4,66,50,36,29.94,29.79,26,4,26,0.00
2013-4-3,43.4,34.3,27.4,20.1,15.4,11.6,71,47,31,30.16,29.91,21,5,23,0.00
2013-4-4,55.6,40.0,27.1,26.7,19.4,14.7,65,46,25,30.30,30.04,15,3,15,0.00
2013-4-5,59.9,44.3,35.0,32.3,28.0,23.0,76,55,27,30.05,29.62,27,3,27,0.00
2013-4-6,45.3,36.1,29.3,26.5,13.1,6.4,65,40,25,30.33,29.88,21,4,22,0.00
2013-4-7,53.9,41.0,26.3,39.8,27.3,7.4,84,59,34,30.33,30.00,25,3,25,0.00
2013-4-8,65.8,51.7,40.7,44.2,41.2,36.7,100,71,37,30.09,29.95,13,2,25,0.00
2013-4-9,70.3,54.7,43.5,55.7,45.5,39.8,100,74,47,30.08,29.86,20,3,25,0.12
2013-4-10,64.1,51.6,43.8,51.7,47.1,42.6,100,86,62,30.02,29.85,10,1,10,0.27
2013-4-11,54.7,45.6,38.3,47.0,40.2,28.6,100,83,51,30.15,29.82,12,2,12,0.05
2013-4-12,38.4,36.4,34.8,37.1,35.5,32.8,100,97,83,30.16,29.78,16,2,16,0.52
2013-4-13,52.8,42.2,33.7,41.6,36.8,33.7,100,83,58,29.95,29.75,13,2,14,0.07
2013-4-14,49.9,42.9,34.7,39.7,33.4,27.0,98,71,47,30.22,29.90,19,2,19,0.01
2013-4-15,58.1,44.3,31.6,40.0,32.9,26.3,84,66,44,30.39,30.21,14,2,15,0.00
2013-4-16,66.3,50.5,35.7,51.6,43.1,34.7,98,78,50,30.40,30.07,21,3,21,0.00
2013-4-17,66.8,56.7,45.5,54.1,40.1,29.8,99,58,31,30.34,30.06,16,2,16,0.00
2013-4-18,62.0,49.4,35.4,45.3,34.6,28.8,84,59,39,30.42,30.14,17,3,17,0.00
2013-4-19,72.7,60.9,49.8,64.7,58.2,45.2,100,92,69,30.14,29.65,24,4,24,0.00
2013-4-20,64.3,51.6,40.5,64.2,42.6,24.3,100,74,43,30.23,29.61,22,3,22,0.62
2013-4-21,53.7,41.4,30.4,28.7,24.3,20.0,78,52,32,30.68,30.22,20,3,22,0.00
2013-4-22,50.4,39.9,28.3,35.4,30.7,26.4,99,72,42,30.75,30.58,15,2,15,0.00
2013-4-23,39.7,38.1,35.5,39.7,36.8,30.8,100,95,79,30.59,30.12,14,2,14,0.06
2013-4-24,75.6,54.6,39.0,54.6,45.6,39.0,100,77,33,30.12,29.79,23,3,23,0.01
2013-4-25,64.9,53.5,43.8,53.2,38.6,27.4,100,61,32,30.28,29.83,19,3,19,0.03
2013-4-26,61.1,48.2,34.7,41.6,35.0,26.6,90,61,46,30.43,30.27,11,2,11,0.00
2013-4-27,65.5,49.6,34.3,44.9,38.3,34.0,100,69,37,30.43,30.28,10,2,10,0.00
2013-4-28,71.1,53.2,37.0,44.8,37.9,29.9,99,61,34,30.34,30.21,13,2,13,0.00
2013-4-29,67.8,55.5,44.0,50.2,39.7,26.8,96,59,34,30.28,30.19,16,2,16,0.00
2013-4-30,70.3,56.2,43.3,35.3,31.2,26.6,71,41,25,30.37,30.25,11,2,11,0.00
2013-5-1,68.5,54.9,37.2,42.6,35.8,30.3,82,51,32,30.48,30.36,9,2,10,0.00
2013-5-2,79.5,56.8,43.0,48.2,43.3,37.6,95,65,30,30.50,30.34,12,2,12,0.00
2013-5-3,61.7,48.9,38.0,46.8,41.7,37.2,99,78,56,30.53,30.38,13,2,13,0.00
2013-5-4,61.2,48.6,36.1,47.6,40.5,33.2,100,76,47,30.38,30.30,13,1,13,0.00
2013-5-5,60.7,46.5,33.4,46.0,39.6,33.4,100,80,53,30.33,30.24,7,1,8,0.00
2013-5-6,72.8,53.0,34.5,52.7,45.5,34.2,100,79,45,30.29,30.14,10,1,10,0.00
2013-5-7,77.2,62.4,46.9,59.4,54.1,46.4,100,77,52,30.19,30.09,13,2,13,0.00
2013-5-8,71.3,61.3,51.9,67.8,59.5,51.9,100,94,70,30.21,30.05,15,1,15,0.15
2013-5-9,67.3,59.0,55.0,65.0,58.6,54.8,100,99,82,30.06,29.89,6,0,7,0.87
2013-5-10,80.3,65.1,51.0,64.6,57.3,51.0,100,79,49,29.97,29.89,8,1,8,0.01
2013-5-11,68.5,61.6,56.5,64.6,59.8,54.8,100,94,78,29.93,29.70,20,2,20,0.09
2013-5-12,71.1,59.1,47.4,62.3,52.5,34.0,100,81,51,29.82,29.57,28,2,28,0.13
2013-5-13,58.3,47.9,40.0,36.3,33.4,30.0,74,58,42,30.04,29.82,19,2,19,0.00
2013-5-14,58.6,47.1,35.0,37.2,34.0,31.2,90,62,39,30.06,29.97,19,2,19,0.00
2013-5-15,64.5,51.2,38.4,52.9,42.0,33.0,100,74,39,30.06,29.68,15,2,19,0.05
2013-5-16,79.9,66.3,51.5,54.0,46.0,37.9,100,53,28,29.81,29.64,26,3,26,0.00
2013-5-17,68.3,57.6,46.1,48.0,43.9,38.0,90,62,39,30.23,29.80,21,2,21,0.00
2013-5-18,73.3,59.2,43.1,50.1,46.1,41.0,100,66,35,30.32,30.22,14,1,14,0.00
2013-5-19,70.3,57.3,47.5,56.0,51.8,46.5,100,84,56,30.35,30.22,9,1,9,0.09
2013-5-20,80.8,66.4,54.0,68.6,61.9,54.0,100,87,62,30.22,29.92,14,1,14,0.02
2013-5-21,86.3,63.6,49.3,72.3,60.4,49.3,100,90,62,30.02,29.85,10,1,10,0.09
2013-5-22,71.1,56.6,48.2,67.2,55.6,48.2,100,96,83,30.07,29.88,14,1,14,0.14
2013-5-23,73.2,62.6,53.2,71.5,61.9,53.2,100,98,90,29.94,29.81,21,2,21,0.23
2013-5-24,71.3,61.0,46.3,68.6,60.6,46.3,100,99,85,29.84,29.66,15,2,15,0.32
2013-5-25,48.8,44.9,39.0,48.8,44.9,38.9,100,100,100,29.83,29.72,20,3,20,0.48
2013-5-26,56.8,46.4,37.4,43.9,40.6,37.4,100,82,56,30.12,29.72,31,4,31,0.02
2013-5-27,70.8,55.8,40.5,46.2,42.5,39.1,99,66,34,30.18,30.08,19,2,19,0.00
2013-5-28,76.0,59.1,43.0,56.2,48.1,40.7,95,70,39,30.25,30.16,8,1,8,0.00
2013-5-29,71.0,61.5,56.0,68.2,60.9,54.8,100,98,89,30.20,29.99,8,1,8,1.06
2013-5-30,86.7,73.5,61.5,73.6,67.8,61.5,100,84,60,30.11,30.02,16,2,16,0.01
2013-5-31,92.9,79.2,64.9,75.2,69.4,64.8,100,75,47,30.11,29.95,11,1,11,0.00
2013-6-1,90.9,78.4,66.9,73.4,68.7,63.4,90,73,51,30.00,29.87,13,2,13,0.00
2013-6-2,87.3,75.1,66.3,72.4,68.4,64.8,100,82,54,29.91,29.74,20,3,20,0.00
2013-6-3,77.5,67.1,58.7,70.9,64.2,46.6,100,91,64,29.87,29.77,10,1,10,0.39
2013-6-4,70.6,59.3,46.9,52.4,47.5,41.0,88,66,48,30.11,29.84,15,2,15,0.00
2013-6-5,74.7,60.7,47.2,58.1,50.7,46.1,99,72,43,30.20,30.10,8,1,8,0.00
2013-6-6,72.2,61.6,51.6,57.3,52.8,48.7,96,74,51,30.20,30.11,12,1,12,0.01
2013-6-7,56.6,54.0,51.5,56.6,53.9,51.5,100,100,96,30.12,29.82,10,1,10,2.51
2013-6-8,76.3,61.1,51.0,68.3,58.5,51.0,100,92,71,30.02,29.63,15,2,15,0.88
2013-6-9,78.4,66.2,54.2,61.5,58.3,54.2,100,78,53,30.18,30.01,14,1,15,0.00
2013-6-10,69.5,61.2,55.4,63.4,58.9,54.6,100,92,73,30.22,30.02,6,0,6,0.74
2013-6-11,62.8,57.0,54.5,62.0,56.8,54.5,100,99,95,30.03,29.58,12,1,12,1.18
2013-6-12,68.8,60.6,55.0,60.8,56.0,52.8,100,86,66,29.83,29.57,27,3,27,0.03
2013-6-13,63.6,54.6,50.0,61.5,54.2,50.0,100,99,91,29.83,29.68,8,0,8,0.97
2013-6-14,73.5,58.3,49.9,63.9,55.2,49.8,100,90,63,29.78,29.64,12,1,12,1.10
2013-6-15,77.7,65.9,54.7,56.5,52.2,48.4,94,64,38,29.97,29.78,18,2,18,0.00
2013-6-16,74.2,64.8,54.1,64.2,56.5,47.8,92,75,55,29.96,29.72,14,1,14,0.00
2013-6-17,83.7,68.1,58.3,67.7,62.0,57.6,100,83,50,29.92,29.79,28,2,28,0.26
2013-6-18,77.3,61.5,56.6,69.2,60.6,56.6,100,97,74,29.97,29.89,14,1,14,0.48
2013-6-19,75.8,62.8,54.2,61.5,56.1,52.6,100,81,52,30.16,29.91,9,1,9,0.11
2013-6-20,78.8,64.7,48.7,60.4,55.2,48.7,100,75,46,30.27,30.16,7,1,9,0.00
2013-6-21,83.7,69.8,56.6,68.3,62.1,54.6,96,78,53,30.27,30.20,10,1,10,0.00
2013-6-22,83.0,71.1,60.6,68.6,63.0,57.7,94,77,54,30.24,30.13,8,2,8,0.00
2013-6-23,87.8,74.3,61.8,76.5,67.8,58.5,94,81,66,30.18,30.01,11,2,11,0.00
2013-6-24,91.5,77.4,66.9,77.8,72.2,66.9,100,85,59,30.05,29.89,13,1,18,0.07
2013-6-25,89.4,76.3,65.2,76.4,70.4,65.2,100,84,56,29.95,29.75,12,1,12,0.01
2013-6-26,83.9,74.4,67.8,74.1,70.4,67.8,100,88,68,29.87,29.74,13,1,13,0.00
2013-6-27,73.0,65.5,62.1,70.1,65.2,62.1,100,99,89,29.88,29.76,6,0,7,0.13
2013-6-28,81.2,69.0,59.3,76.3,67.7,59.3,100,96,79,29.77,29.50,15,2,15,0.34
2013-6-29,81.2,73.0,68.1,73.9,70.0,68.0,100,91,69,29.74,29.52,10,2,13,0.00
2013-6-30,84.3,74.2,67.4,75.9,71.4,67.4,100,91,73,29.95,29.73,11,2,11,0.00
2013-7-1,79.7,73.1,69.3,78.2,72.7,69.3,100,98,90,30.09,29.94,10,1,10,0.10
2013-7-2,81.8,73.5,63.9,76.5,71.9,63.6,100,95,83,30.22,30.08,10,1,10,0.00
2013-7-3,86.9,73.2,61.2,78.0,70.5,61.2,100,92,71,30.23,30.15,9,1,12,0.00
2013-7-4,91.1,80.1,70.7,79.9,75.4,70.7,100,87,66,30.23,30.11,10,1,10,0.00
2013-7-5,92.4,81.6,72.3,80.4,76.0,72.2,100,84,64,30.18,30.05,10,1,10,0.00
2013-7-6,89.2,79.9,71.3,78.2,74.1,68.2,100,84,63,30.10,30.00,13,2,13,0.00
2013-7-7,91.1,76.9,68.4,80.2,73.1,66.5,100,89,66,30.05,29.92,7,1,7,0.00
2013-7-8,88.4,76.0,67.3,78.9,73.1,67.0,100,92,67,30.08,29.92,9,1,9,0.00
2013-7-9,72.8,67.7,63.4,71.4,67.1,63.4,100,98,93,30.12,30.06,6,0,6,0.01
2013-7-10,83.5,72.0,65.0,78.1,70.8,65.0,100,96,80,30.09,29.81,15,1,15,0.10
2013-7-11,79.9,74.6,67.6,77.6,73.6,67.6,100,97,88,29.95,29.83,5,1,6,0.09
2013-7-12,75.7,68.1,62.3,67.6,64.0,59.6,100,87,70,30.22,29.94,9,1,9,0.00
2013-7-13,75.2,68.2,62.0,72.8,67.3,60.6,100,97,89,30.33,30.21,5,0,5,0.02
2013-7-14,90.4,76.2,67.8,77.8,72.7,67.8,100,90,58,30.32,30.22,8,1,8,0.06
2013-7-15,92.0,78.5,69.3,79.6,74.6,69.3,100,89,59,30.23,30.12,10,0,10,0.00
2013-7-16,92.4,79.0,67.3,76.8,71.8,66.7,100,81,52,30.19,30.12,9,1,9,0.00
2013-7-17,93.7,80.6,69.3,78.6,74.2,69.3,100,83,52,30.20,30.01,9,1,9,0.00
2013-7-18,94.2,82.0,73.0,79.9,76.2,72.9,100,84,54,30.03,29.94,12,1,12,0.00
2013-7-19,94.8,83.2,70.6,80.4,77.0,70.6,100,84,58,29.97,29.74,14,2,14,0.00
2013-7-20,91.1,81.0,71.1,81.3,76.4,66.0,100,87,62,29.83,29.67,11,1,11,0.00
2013-7-21,84.1,73.8,65.6,71.8,67.7,62.8,100,82,65,30.00,29.83,7,1,7,0.00
2013-7-22,82.9,70.7,62.6,74.8,68.0,62.6,100,92,72,30.04,29.90,5,0,5,0.00
2013-7-23,80.3,70.7,67.3,79.9,70.6,67.3,100,100,94,29.90,29.55,17,0,17,1.85
2013-7-24,83.5,73.7,63.4,77.7,69.1,56.9,100,87,63,29.97,29.60,18,1,19,0.01
2013-7-25,63.2,57.7,56.2,59.3,55.5,50.5,100,92,79,30.12,29.97,8,1,11,0.33
2013-7-26,70.6,62.2,57.2,70.3,62.2,57.2,100,100,97,30.07,29.96,13,1,13,0.47
2013-7-27,83.5,69.5,59.0,71.2,65.1,59.0,100,87,60,30.08,30.01,8,1,8,0.01
2013-7-28,84.9,70.8,61.0,74.7,68.2,61.0,100,92,66,30.04,29.97,6,1,6,0.00
2013-7-29,81.4,71.1,63.2,74.3,68.8,63.1,100,93,72,30.07,29.98,10,1,10,0.46
2013-7-30,80.8,68.4,56.6,65.3,61.4,56.6,100,81,52,30.12,30.05,11,1,11,0.01
2013-7-31,82.6,69.4,58.1,67.6,62.4,57.8,100,81,51,30.16,30.05,6,1,6,0.00
2013-8-1,78.2,67.5,59.8,69.6,64.6,59.8,100,91,71,30.07,29.89,12,1,12,0.01
2013-8-2,81.2,69.7,62.5,71.3,65.4,62.4,100,88,60,29.92,29.82,13,1,13,1.05
2013-8-3,77.2,67.7,61.8,68.4,64.7,61.8,100,91,68,29.90,29.80,12,1,12,0.00
2013-8-4,79.2,65.9,56.6,64.0,60.1,55.4,100,84,55,29.93,29.79,11,1,11,0.02
2013-8-5,75.0,61.9,52.2,57.2,51.7,47.5,100,73,40,30.07,29.91,14,2,18,0.01
2013-8-6,78.3,63.6,49.7,61.5,54.9,47.1,100,76,50,30.17,30.06,3,0,3,0.00
2013-8-7,78.3,66.4,56.6,65.7,58.7,54.8,100,79,47,30.21,30.13,11,1,11,0.00
2013-8-8,79.0,69.4,62.1,74.2,67.9,59.1,100,95,84,30.15,30.03,10,1,10,0.07
2013-8-9,73.3,70.7,68.9,73.3,70.7,68.9,100,100,100,30.05,29.77,8,0,8,1.50
2013-8-10,81.2,70.9,59.9,69.9,64.1,56.1,100,81,52,30.04,29.82,17,1,17,0.02
2013-8-11,79.0,65.1,52.4,64.3,57.7,52.3,100,79,53,30.11,30.02,10,0,11,0.00
2013-8-12,81.8,69.0,59.0,66.9,62.2,58.9,100,81,52,30.06,29.94,9,0,9,0.00
2013-8-13,72.8,66.3,62.9,69.7,65.5,62.2,100,97,84,29.95,29.70,7,0,7,0.03
2013-8-14,72.0,63.9,56.9,63.1,57.1,52.3,100,80,59,29.99,29.69,24,2,24,0.00
2013-8-15,75.2,62.6,51.8,59.8,55.6,51.8,100,80,54,30.14,29.99,12,0,16,0.00
2013-8-16,78.1,65.0,54.5,63.9,58.1,53.1,96,80,54,30.22,30.13,11,1,11,0.00
2013-8-17,80.3,66.7,54.7,66.4,61.2,54.7,100,84,59,30.31,30.22,5,0,5,0.00
2013-8-18,78.3,66.5,57.2,69.1,63.2,56.9,100,90,66,30.30,30.11,5,0,5,0.00
2013-8-19,80.3,68.5,58.4,68.4,63.3,58.4,100,85,61,30.11,29.98,10,0,10,0.00
2013-8-20,85.5,72.2,60.9,70.4,65.4,60.9,100,81,52,30.12,30.00,9,0,9,0.00
2013-8-21,87.3,73.4,61.7,72.1,66.8,60.8,100,82,56,30.17,30.05,7,0,7,0.00
2013-8-22,83.7,73.2,64.2,75.1,69.9,63.9,100,90,71,30.07,29.85,9,1,9,0.00
2013-8-23,79.7,69.9,59.3,69.5,62.6,54.2,100,79,52,30.15,29.84,13,1,13,0.00
2013-8-24,78.1,62.9,50.0,59.7,53.5,49.9,100,74,43,30.36,30.15,9,0,9,0.00
2013-8-25,82.2,66.9,52.6,63.0,57.0,51.8,100,74,43,30.39,30.21,11,0,11,0.00
2013-8-26,78.1,69.1,62.0,70.4,64.4,58.2,99,85,72,30.22,29.89,12,1,12,0.01
2013-8-27,83.5,71.2,63.7,74.9,69.1,63.7,100,94,69,29.93,29.85,5,0,5,0.14
2013-8-28,85.3,70.4,61.5,73.4,66.7,61.5,100,89,64,30.00,29.87,7,0,7,0.00
2013-8-29,64.8,62.7,58.4,64.8,62.5,58.4,100,99,97,30.09,29.96,8,0,8,0.00
2013-8-30,82.3,68.2,56.8,72.5,65.3,56.8,100,91,69,30.05,29.85,10,1,10,0.00
2013-8-31,79.7,72.3,66.5,76.4,71.5,66.5,100,98,88,29.87,29.81,8,1,8,0.01
2013-9-1,75.6,70.4,66.6,75.4,70.4,66.6,100,100,100,29.92,29.82,14,0,14,0.67
2013-9-2,76.6,71.9,69.4,76.6,71.9,69.4,100,100,100,29.90,29.73,4,0,8,0.11
2013-9-3,77.9,70.0,60.4,73.8,68.8,59.0,100,96,83,29.84,29.71,10,0,10,0.01
2013-9-4,78.8,66.2,56.6,64.8,59.8,56.6,100,82,52,29.96,29.83,13,1,13,0.00
2013-9-5,70.3,61.4,48.4,63.4,56.2,46.5,100,84,55,30.17,29.88,10,1,10,0.05
2013-9-6,69.1,54.5,41.3,51.8,46.0,40.5,100,76,45,30.27,30.11,7,0,7,0.00
2013-9-7,78.8,62.4,50.3,61.0,53.5,46.0,90,74,44,30.11,29.88,7,1,7,0.00
2013-9-8,72.5,62.0,46.6,63.8,54.7,41.6,99,78,48,30.12,29.77,20,2,20,0.00
2013-9-9,69.0,54.7,41.5,52.8,47.0,40.8,99,77,51,30.26,30.11,9,0,9,0.00
2013-9-10,73.5,64.0,53.7,72.5,63.2,51.1,100,97,89,30.18,30.05,9,1,9,0.06
2013-9-11,92.9,78.4,67.5,80.3,73.7,67.5,100,87,60,30.09,29.96,22,1,22,0.00
2013-9-12,85.3,74.5,65.4,77.5,71.4,65.3,100,91,71,30.00,29.70,15,1,15,1.61
2013-9-13,79.0,66.6,57.2,73.7,64.9,55.5,100,95,74,29.78,29.59,14,1,14,0.12
2013-9-14,66.3,57.6,50.4,58.5,54.6,50.4,100,90,72,30.08,29.78,13,1,14,0.00
2013-9-15,55.2,52.3,50.4,52.3,51.1,50.4,100,96,90,30.08,30.07,1,0,6,0.00
2013-9-16,55.9,54.5,53.2,55.9,53.0,51.5,100,95,90,30.09,30.03,5,0,5,0.02
2013-9-17,62.8,48.3,35.3,46.7,41.6,35.2,100,80,52,30.44,30.27,3,0,12,0.01
2013-9-18,45.0,45.0,45.0,43.9,43.9,43.9,96,96,96,30.34,30.34,0,0,0,0.00
2013-9-20,78.8,68.8,53.3,64.5,59.2,53.3,100,73,49,30.11,30.01,7,0,7,0.00
2013-9-21,72.5,62.7,53.1,66.3,60.6,53.1,100,93,70,30.05,29.74,14,1,14,0.01
2013-9-22,68.3,61.5,47.8,67.8,57.8,46.8,100,89,63,29.86,29.61,16,1,16,0.38
2013-9-23,62.8,50.3,42.7,49.2,44.4,41.0,97,81,58,30.03,29.85,15,1,15,0.00
2013-9-24,66.0,51.5,40.4,49.6,44.7,39.8,99,80,52,30.01,29.82,13,1,13,0.00
2013-9-25,69.1,53.8,43.1,56.5,49.5,43.1,100,87,61,30.00,29.88,12,0,12,0.00
2013-9-26,65.7,55.6,50.0,54.6,51.4,50.0,100,87,61,30.14,30.00,3,0,8,0.00
2013-9-27,62.8,55.4,49.1,57.1,53.3,49.1,100,93,77,30.28,30.14,8,0,8,0.00
2013-9-28,72.5,56.8,47.3,61.0,53.2,47.3,100,89,62,30.35,30.27,8,0,8,0.01
2013-9-29,69.0,53.0,44.1,57.6,49.2,44.1,100,88,57,30.29,30.14,6,0,6,0.01
2013-9-30,69.1,53.9,45.5,58.2,50.8,45.5,100,91,59,30.14,29.97,5,0,5,0.01
2013-10-1,76.8,59.3,44.8,61.2,53.9,44.8,100,85,51,29.98,29.86,11,0,12,0.01
2013-10-2,77.5,64.7,54.1,65.3,59.7,53.8,100,85,62,29.98,29.85,15,1,15,0.00
2013-10-3,75.6,62.4,51.9,58.5,54.2,50.1,100,77,44,30.11,29.97,9,0,9,0.00
2013-10-4,65.3,56.5,50.0,61.9,54.5,47.8,100,93,82,30.11,30.05,5,0,5,0.08
2013-10-5,68.6,60.2,54.8,62.7,58.4,54.8,100,94,78,30.15,30.07,5,0,5,0.00
2013-10-6,58.9,54.8,52.7,58.7,54.8,52.6,100,100,99,30.25,30.13,6,0,6,0.46
2013-10-7,74.3,62.6,54.3,73.0,61.9,54.3,100,98,89,30.14,29.82,18,2,18,0.10
2013-10-8,65.4,54.3,41.7,55.4,48.2,40.6,97,81,54,30.39,29.92,14,1,14,0.00
2013-10-9,62.2,47.9,37.5,50.7,44.2,37.5,100,89,62,30.49,30.38,7,0,7,0.00
2013-10-10,61.2,49.6,39.7,55.5,48.2,39.7,100,95,80,30.38,30.19,5,0,5,0.01
2013-10-11,71.0,54.7,45.3,59.8,49.8,41.4,100,85,56,30.20,30.11,10,0,10,0.00
2013-10-12,57.4,51.4,45.0,57.2,51.1,45.0,100,99,94,30.41,30.16,6,0,6,0.00
2013-10-13,56.9,49.1,40.5,54.8,47.4,40.5,100,94,80,30.46,30.38,7,0,7,0.01
2013-10-14,64.1,48.9,35.9,53.4,44.2,35.9,100,86,56,30.42,30.26,6,0,6,0.01
2013-10-15,67.5,54.6,46.5,57.6,51.2,46.3,100,89,69,30.27,30.18,4,0,5,0.00
2013-10-16,59.3,52.5,46.8,58.1,51.6,46.8,100,97,84,30.19,29.92,4,0,4,0.00
2013-10-17,73.3,59.3,50.4,63.7,56.9,50.4,100,93,67,29.93,29.73,6,0,10,0.03
2013-10-18,65.5,57.9,46.5,59.9,51.6,42.2,100,81,57,29.93,29.62,19,1,19,0.01
2013-10-19,65.0,53.4,43.1,48.6,44.8,40.2,91,74,49,29.99,29.75,12,0,12,0.00
2013-10-20,60.0,51.1,42.8,50.7,42.0,35.0,100,74,44,30.03,29.70,19,1,19,0.04
2013-10-21,66.5,51.7,40.7,46.8,41.5,35.2,87,70,47,30.12,30.00,13,0,13,0.00
2013-10-22,63.2,51.4,42.4,55.0,46.9,38.2,100,86,65,30.00,29.72,12,0,12,0.01
2013-10-23,49.1,43.2,36.1,39.9,35.8,32.8,97,76,58,29.81,29.59,9,0,9,0.00
2013-10-24,50.7,43.0,35.0,36.7,31.7,26.8,90,66,44,29.90,29.65,16,1,16,0.00
2013-10-25,48.6,38.9,32.2,35.8,30.0,26.6,95,71,50,30.17,29.89,20,1,20,0.00
2013-10-26,53.2,42.6,32.8,36.6,32.1,28.3,90,68,41,30.16,29.88,18,0,18,0.00
2013-10-27,53.2,45.2,37.7,39.5,35.3,30.1,87,69,50,30.07,29.81,8,0,21,0.01
2013-10-28,56.8,43.4,34.0,38.4,33.3,26.6,87,69,49,30.36,30.07,18,0,18,0.00
2013-10-29,48.7,35.8,26.5,31.4,24.6,19.7,90,66,38,30.46,30.35,5,0,5,0.00
2013-10-30,51.2,41.2,34.0,41.8,36.6,30.4,98,84,69,30.37,30.20,6,0,6,0.00
2013-10-31,60.3,48.9,36.5,59.8,48.7,36.5,100,99,92,30.25,29.79,14,1,14,0.08
2013-11-1,67.6,61.8,54.4,63.4,58.8,53.3,100,90,75,29.79,29.47,11,0,11,0.04
2013-11-2,66.3,54.0,45.0,53.8,46.5,43.0,100,79,47,29.74,29.59,14,0,14,0.02
2013-11-3,46.9,39.2,28.8,46.8,30.3,17.8,100,72,41,30.42,29.73,17,2,17,0.01
2013-11-4,41.5,30.6,23.5,20.7,18.1,15.4,80,61,38,30.70,30.42,9,0,9,0.00
2013-11-5,49.1,36.3,23.5,33.7,27.4,19.4,91,71,51,30.72,30.51,4,0,4,0.00
2013-11-6,58.9,48.2,37.5,49.6,42.0,33.0,94,80,59,30.52,30.05,14,0,14,0.00
2013-11-7,63.1,51.8,38.1,58.5,49.8,31.5,100,93,75,30.05,29.68,16,2,16,0.17
2013-11-8,46.5,36.8,29.5,36.3,28.2,22.7,84,71,57,30.10,29.82,21,1,21,0.01
2013-11-9,43.0,35.6,28.3,29.6,25.8,22.3,80,68,49,30.22,30.02,17,0,17,0.00
2013-11-10,54.8,43.5,37.4,44.4,37.1,29.5,100,79,61,30.03,29.74,21,0,21,0.04
2013-11-11,50.2,42.8,35.1,33.6,30.0,26.7,73,61,45,30.11,29.86,23,1,23,0.00
2013-11-12,46.8,33.3,23.9,39.2,25.6,15.0,99,74,60,30.19,29.88,18,2,18,0.10
2013-11-13,34.7,26.8,20.4,18.2,15.2,11.9,79,62,45,30.29,30.15,19,2,19,0.00
2013-11-14,50.2,37.8,26.1,27.9,22.1,16.3,67,54,40,30.15,30.04,16,2,16,0.00
2013-11-15,59.0,45.8,35.5,33.1,24.8,17.8,67,45,25,30.20,30.11,11,1,11,0.00
2013-11-16,59.5,46.6,39.5,36.4,29.3,26.3,80,53,30,30.33,30.19,9,0,9,0.00
2013-11-17,51.9,42.5,33.8,45.1,40.0,33.2,100,91,74,30.31,29.84,3,0,3,0.03
2013-11-18,64.2,55.9,44.7,60.6,47.6,33.3,100,76,55,29.85,29.55,17,2,17,0.25
2013-11-19,45.3,37.3,28.4,33.6,23.5,16.3,66,57,47,30.28,29.66,27,5,27,0.00
2013-11-20,39.7,30.0,25.0,18.1,15.2,12.1,67,54,37,30.63,30.27,16,2,16,0.00
2013-11-21,46.5,34.4,23.3,32.9,20.9,12.2,77,58,42,30.64,30.37,10,0,10,0.00
2013-11-22,44.4,42.0,39.1,44.4,40.9,33.2,100,96,78,30.37,29.82,5,0,5,0.12
2013-11-23,44.8,37.6,26.5,44.7,28.4,17.7,100,71,47,29.92,29.79,22,3,22,0.01
2013-11-24,26.6,21.3,17.5,19.0,5.2,-2.8,86,51,31,30.19,29.80,22,5,35,0.00
2013-11-25,31.6,22.8,14.1,18.2,5.0,-2.7,63,47,27,30.36,30.19,13,0,18,0.00
2013-11-26,38.1,33.2,29.2,33.8,22.9,15.4,100,67,52,30.32,30.03,6,1,16,0.13
2013-11-27,60.1,47.4,33.1,60.1,47.3,33.0,100,100,94,30.03,29.21,27,3,27,1.59
2013-11-28,35.0,27.9,21.1,33.0,16.7,8.6,94,63,43,30.43,29.47,25,3,25,0.00
2013-11-29,32.4,24.3,16.0,17.2,12.0,4.2,80,60,44,30.74,30.43,16,1,16,0.00
2013-11-30,30.8,21.8,11.1,20.7,12.8,5.5,81,69,54,30.79,30.41,7,0,7,0.00
2013-12-1,33.6,31.0,27.6,33.5,29.5,20.4,100,94,75,30.41,30.01,0,0,2,0.12
2013-12-2,37.4,35.1,33.5,37.4,35.1,33.5,100,100,100,30.01,29.91,0,0,0,0.01
2013-12-3,47.2,36.8,31.4,45.2,34.9,30.9,100,94,71,29.96,29.84,8,1,11,0.00
2013-12-4,43.0,34.2,29.5,32.1,29.3,26.7,100,83,59,30.20,29.95,12,0,12,0.01
2013-12-5,51.2,37.1,30.4,51.2,36.4,27.3,100,97,88,30.21,29.91,10,0,12,0.01
2013-12-6,54.2,46.4,31.6,54.2,45.7,31.6,100,98,83,30.15,29.85,12,1,12,0.27
2013-12-7,37.6,31.0,24.1,35.5,27.8,20.8,100,89,66,30.45,30.07,20,1,20,0.13
2013-12-8,29.1,25.7,19.5,21.0,17.6,14.0,84,72,59,30.59,30.44,8,1,8,0.01
2013-12-9,33.1,28.8,23.5,33.1,27.7,17.0,100,96,69,30.49,29.88,6,0,6,0.00
2013-12-10,32.2,28.9,21.3,32.2,28.2,17.5,100,97,80,30.00,29.77,12,1,12,0.00
2013-12-11,29.3,23.1,19.7,19.8,17.8,15.7,90,80,66,30.21,29.99,13,1,13,0.00
2013-12-12,23.2,18.3,12.4,17.5,8.2,2.5,88,65,46,30.27,30.05,22,2,22,0.00
2013-12-13,27.7,19.7,12.1,16.5,10.8,4.2,78,68,57,30.37,29.97,18,2,18,0.00
2013-12-14,16.5,11.9,8.1,14.8,3.7,-3.5,93,70,51,30.59,30.13,9,2,9,0.00
2013-12-15,31.3,24.0,16.5,31.3,23.7,14.8,100,99,93,30.12,29.42,14,1,14,0.00
2013-12-16,25.4,20.6,12.1,22.0,13.5,5.1,98,75,51,30.19,29.73,21,2,21,0.00
2013-12-17,15.9,10.0,0.9,14.5,5.5,-4.4,94,82,70,30.27,29.93,8,0,8,0.00
2013-12-18,31.0,22.8,13.1,22.5,18.4,11.0,96,84,66,30.07,29.85,19,2,19,0.01
2013-12-19,40.5,31.8,22.8,26.9,23.3,18.6,85,71,55,30.11,29.95,7,2,13,0.18
2013-12-20,52.2,40.8,31.9,37.8,31.8,26.0,80,71,54,30.11,29.90,9,2,12,0.63
2013-12-21,56.2,48.0,41.2,48.9,43.0,33.8,96,83,72,29.96,29.85,11,2,11,0.08
2013-12-22,59.8,44.1,33.1,59.8,43.9,33.1,100,99,90,30.02,29.77,12,1,12,0.00
2013-12-23,35.7,32.1,30.5,35.7,32.1,30.5,100,100,100,30.08,29.94,8,0,8,0.51
2013-12-24,35.3,29.9,23.9,35.3,24.4,15.1,100,81,57,30.20,30.03,15,2,15,0.00
2013-12-25,23.8,17.0,12.3,15.1,4.8,0.6,69,58,45,30.53,30.19,18,2,18,0.00
2013-12-26,27.6,21.7,13.4,26.9,18.0,4.8,97,86,65,30.49,30.07,8,0,8,0.00
2013-12-27,32.3,25.9,20.7,22.8,19.9,17.7,96,78,63,30.27,30.18,8,1,8,0.04
2013-12-28,45.2,33.1,22.2,30.2,24.8,18.3,89,72,54,30.21,29.98,15,2,15,0.02
2013-12-29,40.6,35.5,31.6,37.3,31.2,25.3,100,85,71,30.03,29.41,16,2,16,1.02
2013-12-30,39.1,30.3,16.5,39.0,23.6,7.8,100,78,47,30.15,29.52,22,2,22,0.01
2013-12-31,24.5,17.0,10.9,14.4,6.6,-1.9,78,64,51,30.17,30.00,10,2,10,0.00
2014-1-1,25.7,19.1,13.6,10.9,7.7,4.3,71,61,49,30.36,30.17,16,1,16,0.00
2014-1-2,19.5,10.1,-0.3,14.0,6.6,-4.5,92,86,68,30.34,29.82,23,3,23,0.00